Regional Weather Roundup
Issued by NWS

Home | Current Version | Previous Version | Text Only | Print | Product List | Glossary Off
Versions: 1 2 3 4 5 6 7 8 9 10 11 12 13 14 15 16 17 18 19 20 21 22 23 24 25 26 27 28 29 30 31 32 33 34 35 36 37 38 39 40 41 42 43 44 45 46 47 48 49 50

000
ASUS43 KLOT 241608
RWRIL

ILLINOIS REGIONAL WEATHER ROUNDUP
NATIONAL WEATHER SERVICE CHICAGO/ROMEOVILLE IL
1000 AM CST FRI NOV 24 2017

NOTE: "FAIR" INDICATES FEW OR NO CLOUDS BELOW 12,000 FEET WITH NO
SIGNIFICANT WEATHER AND/OR OBSTRUCTIONS TO VISIBILITY.

* THESE STATIONS ARE NOT UNDER NWS QUALITY CONTROL. THEY ALSO MAY NOT
  REPORT WEATHER SUCH AS PRECIPITATION OR FOG.

ILZ001-002-007-009-015-016-024-241700-
NORTHWEST ILLINOIS

CITY           SKY/WX    TMP DP  RH WIND       PRES   REMARKS
MOLINE         SUNNY     56  34  43 SW17G24   29.60F
STERLING*      SUNNY     54  37  52 S8        29.64F
SAVANNA*       SUNNY     51  36  55 S14       29.60F
$$

ILZ003-004-008-010-011-017-018-241700-
NORTH CENTRAL ILLINOIS

CITY           SKY/WX    TMP DP  RH WIND       PRES   REMARKS
ROCKFORD       MOSUNNY   49  35  58 S17       29.66F
FREEPORT*      SUNNY     51  34  52 S24       29.61F
ROCHELLE*      SUNNY     51  37  58 S18       29.66F
DE KALB*       SUNNY     46  35  64 S22G28    29.67F
PERU*          SUNNY     50  34  54 S16G22    29.69F
$$

ILZ005-006-012>014-019>023-241700-
NORTHEAST ILLINOIS

CITY           SKY/WX    TMP DP  RH WIND       PRES   REMARKS
CHICAGO-OHARE  MOSUNNY   50  32  50 S13G24    29.68F
CHICAGO-MIDWAY MOSUNNY   50  32  50 S16       29.71F
AURORA         SUNNY     45  34  65 S17       29.69F
LANSING*       SUNNY     47  35  63 S17       29.75F
JOLIET*        SUNNY     49  35  57 S8        29.72F
WAUKEGAN       SUNNY     52  34  50 SW18      29.64F
DUPAGE AIRPORT SUNNY     47  33  58 S18       29.68F
KANKAKEE*      SUNNY     45  32  60 S12       29.78F
WHEELING       SUNNY     50  33  52 S15G25    29.69F
MORRIS*        SUNNY     48  34  58 S13       29.70F
ROMEOVILLE*    SUNNY     47  33  59 S14       29.71F
NORTHERLY ISL    N/A     48  29  48 S16         N/A
$$

LMZ740>746-241700-
SOUTHERN LAKE MICHIGAN

STATION/POSITION SKY/WX   TEMP    WIND        PRES    VSBY  WAVE
                          AIR SEA DIR/SP/G                  HT/PER
                          (F)     (DEG/KT/KT) (MB)    (MI)  (FT/S)
SOUTHERN BUOY              46 47  210/ 23/ 27 1005.3          5/ 5
HARRISON CRIB              47     190/ 23/ 25   N/A
BURNHAM HARBOR             49     170/ 15/ 17   N/A
CALUMET HARBOR             46     180/ 13/ 18 1006.0F
BURNS HARBOR               45     200/ 19/ 26 1007.8F
MICHIGAN CITY              44     170/ 15/ 19   N/A
$$

ILZ025>027-034>036-040-047-049-050-058-095>099-241700-
WEST-CENTRAL ILLINOIS

CITY           SKY/WX    TMP DP  RH WIND       PRES   REMARKS
QUINCY         SUNNY     58  36  43 SW18G26   29.70F
GALESBURG*     SUNNY     54  37  53 S16G22    29.67F
MACOMB*        SUNNY     55  35  48 SW17      29.70F
JACKSONVILLE*  SUNNY     55  34  45 S13       29.75F
PITTSFIELD*    SUNNY     58  36  43 S13G18    29.75F
$$

ILZ028>032-037-038-041>044-048-051>054-059>061-241700-
CENTRAL ILLINOIS

CITY           SKY/WX    TMP DP  RH WIND       PRES   REMARKS
PONTIAC        SUNNY     51  36  55 S21       29.74F
BLOOMINGTON    SUNNY     48  35  60 S18       29.76F
DECATUR        SUNNY     45  33  63 S12       29.81F
PEORIA         SUNNY     49  35  58 S13       29.73F
LACON*         SUNNY     56  35  45 S7        29.69F
LINCOLN*       SUNNY     47  36  63 S14       29.77F
SPRINGFIELD    SUNNY     51  34  52 S12       29.78F
TAYLORVILLE    SUNNY     47  34  59 S14       29.81F
$$

ILZ033-039-045-046-055>057-062-063-241700-
EAST-CENTRAL ILLINOIS

CITY           SKY/WX    TMP DP  RH WIND       PRES   REMARKS
CHAMPAIGN      SUNNY     45  33  63 S14       29.83F
DANVILLE*      SUNNY     43  31  61 S12       29.80F
RANTOUL*       SUNNY     44  35  72 S15       29.81F
MATTOON        MOSUNNY   43  32  65 S12       29.83F
PARIS*         MOSUNNY   41  32  69 S7        29.86F
$$

ILZ079-100>102-241700-
SOUTHWEST ILLINOIS

CITY           SKY/WX    TMP DP  RH WIND       PRES   REMARKS
ALTON          MOSUNNY   48  36  61 S9        29.83F
BELLEVILLE     SUNNY     48  34  59 S8        29.84F
CAHOKIA*       SUNNY     52  33  48 SE8       29.84F
SPARTA*        MOSUNNY   50  34  53 S10G16    29.88F
$$

ILZ064>066-069>071-074>076-080>082-084>086-088>090-092>094-241700-
SOUTH-CENTRAL ILLINOIS

CITY           SKY/WX    TMP DP  RH WIND       PRES   REMARKS
CARBONDALE     SUNNY     51  33  50 S10       29.90F
CAIRO*         MOSUNNY   45  32  60 S7        29.95R
EFFINGHAM*     MOSUNNY   44  32  64 SE6       29.88F
MARION         PTSUNNY   50  32  50 S12       29.93R
MT. VERNON     MOSUNNY   48  35  60 SW9       29.89F
CENTRALIA*     MOSUNNY   47  35  62 S8        29.87F
SALEM*         PTSUNNY   47  32  56 S6        29.87F
METROPOLIS*    SUNNY     50  31  48 SW7       29.96S
$$

ILZ067-068-072-073-078-083-087-091-241700-
SOUTHEAST ILLINOIS

CITY           SKY/WX    TMP DP  RH WIND       PRES   REMARKS
LAWRENCEVILLE  MOSUNNY   45  32  60 S14       29.92F
FLORA*         MOSUNNY   47  34  60 S8        29.89F
FAIRFIELD*     PTSUNNY   47  33  58 S3        29.90S
HARRISBURG*    MOSUNNY   50  32  50 SW9       29.93S
ROBINSON*      PTSUNNY   44  31  61 S8        29.91F
CARMI*         MOSUNNY   47  32  55 S13       29.92S
$$

ABBREVIATIONS USED IN REMARKS
   TC - TEMPERATURE IN CELSIUS
  WCI - WIND CHILL INDEX
   HX - HEAT INDEX
  VSB - VISIBILITY
$$




USA.gov is the U.S. government's official web portal to all federal, state and local government web resources and services.